Content
SEND FEEDBACK

Daily
Averages
Monthly
Summary
United Kingdom

BRAFFERTON, ENGLAND


Home > Europe > United Kingdom > England
Elevation: 51 feet     Latitude: 54 02N     Longitude: 001 15W

WEATHER
 
SELECT A DAY
Number of Records: 64,235;   Date Range: 6/2/04 - 11/25/14
 
SHARE

PRINT THIS DATA

[ ← Previous Day ]
WEATHER ALMANAC - DECEMBER 7, 2013
[ Next Day → ]
[ °C ]   °F
Weather ElementAverageHighLow
Temperature43.1 °F48.2 °F (10:50 am)35.6 °F (12:50 am)
Dewpoint39.6 °F42.8 °F (6:50 pm)33.8 °F (12:50 am)
Humidity86.7 %100 % (1:50 am)69 % (12:00 pm)
Barometer30.16 in30.27 in (12:50 am)30.09 in (7:50 pm)
Wind Speed9.1 mph13.8 mph (2:50 pm)
Weather ElementAverage
Visibility6.8 mi
Wind DirectionSW (220.3 °)

Weather ElementTotal
Precipitation---
Heating Degree Days23.1 (Base 65)
Averaged from 31 records on December 7, 2013
WEATHER CONDITIONS BREAKOUT
WIND DIRECTION BREAKOUT
WEATHER BY HOUR - DECEMBER 7, 2013
[ °C ]   °F
Local TimeTemperatureDewpointHumidityBarometerVisibilityWind DirectionWind SpeedGust SpeedPrecipitationEventsConditions
12:50 AM35.6 °F33.8 °F93 %30.27 in3.1 miSSE (160°)6.9 mphOvercast
1:50 AM35.6 °F35.6 °F100 %30.24 inSSE (160°)5.8 mphOvercast
2:50 AM35.6 °F35.6 °F100 %30.21 in0.9 miSSE (160°)5.8 mphOvercast
3:00 AM36.0 °F36.0 °F98 %30.25 in1.0 miSSE (160°)5.8 mphOvercast
3:50 AM35.6 °F35.6 °F100 %30.21 in0.1 miSouth (180°)4.6 mphOvercast
4:50 AM37.4 °F37.4 °F100 %30.18 inSouth (190°)4.6 mphMostly Cloudy
5:50 AM35.6 °F35.6 °F100 %30.18 in0.9 miENE (60°)2.3 mphOvercast
6:00 AM36.0 °F36.0 °F99 %30.21 in1.0 miENE (60°)2.3 mphOvercast
6:50 AM37.4 °F37.4 °F100 %30.18 inWSW (250°)3.5 mphOvercast
7:50 AM42.8 °F41.0 °F93 %30.18 in6.2 miWSW (250°)9.2 mphMostly Cloudy
8:50 AM44.6 °F41.0 °F87 %30.18 in6.2 miWSW (240°)8.1 mphMostly Cloudy
9:00 AM44.0 °F41.0 °F84 %30.20 in9.0 miWSW (240°)8.1 mphMostly Cloudy
9:50 AM44.6 °F41.0 °F87 %30.18 in6.2 miWest (270°)8.1 mphMostly Cloudy
10:50 AM48.2 °F41.0 °F76 %30.18 in6.2 miWest (260°)11.5 mphPartly Cloudy
11:50 AM48.2 °F41.0 °F76 %30.15 in6.2 miWest (270°)12.7 mphMostly Cloudy
12:00 PM48.0 °F41.0 °F69 %30.18 in19.0 miWest (270°)12.7 mphMostly Cloudy
12:50 PM48.2 °F41.0 °F76 %30.15 in6.2 miWest (270°)12.7 mphOvercast
1:50 PM46.4 °F41.0 °F81 %30.15 in6.2 miWSW (250°)11.5 mphMostly Cloudy
2:50 PM46.4 °F41.0 °F81 %30.12 in6.2 miWSW (250°)13.8 mphPartly Cloudy
3:00 PM46.0 °F40.0 °F73 %30.15 in22.0 miWSW (250°)13.8 mphScattered Clouds
3:50 PM46.4 °F39.2 °F76 %30.12 in6.2 miWSW (250°)13.8 mphMostly Cloudy
4:50 PM44.6 °F39.2 °F81 %30.12 in6.2 miSouth (170°)3.5 mphMostly Cloudy
5:50 PM46.4 °F41.0 °F81 %30.12 in6.2 miWSW (240°)9.2 mphMostly Cloudy
6:00 PM46.0 °F41.0 °F77 %30.14 in12.0 miWSW (240°)9.2 mphScattered Clouds
6:50 PM44.6 °F42.8 °F93 %30.12 in6.2 miSSW (210°)6.9 mphMostly Cloudy
7:50 PM44.6 °F42.8 °F93 %30.09 in6.2 miWSW (240°)11.5 mphMostly Cloudy
8:50 PM46.4 °F41.0 °F81 %30.12 in6.2 miWest (260°)12.7 mphMostly Cloudy
9:00 PM47.0 °F41.0 °F73 %30.13 in17.0 miWest (260°)12.7 mphMostly Cloudy
9:50 PM46.4 °F42.8 °F87 %30.09 in6.2 miWSW (250°)13.8 mphOvercast
10:50 PM46.4 °F42.8 °F87 %30.09 in6.2 miWest (260°)13.8 mphOvercast
11:50 PM44.6 °F41.0 °F87 %30.09 in6.2 miWSW (250°)10.4 mphScattered Clouds
Hourly data recorded from EGXD, located miles away from Brafferton, England







STORIES FROM OUR PARTNERS